Year,Month,Day,Hour,Minute,Value (Times are PST for temperature in C)
2013,05,05,00,00,16.80
2013,05,05,00,01,16.80
2013,05,05,00,02,16.80
2013,05,05,00,03,16.80
2013,05,05,00,04,16.80
2013,05,05,00,05,16.80
2013,05,05,00,06,16.70
2013,05,05,00,07,16.70
2013,05,05,00,08,16.60
2013,05,05,00,09,16.60
2013,05,05,00,10,16.50
2013,05,05,00,11,16.50
2013,05,05,00,12,16.40
2013,05,05,00,13,16.40
2013,05,05,00,14,16.30
2013,05,05,00,15,16.30
2013,05,05,00,16,16.30
2013,05,05,00,17,16.30
2013,05,05,00,18,16.30
2013,05,05,00,19,16.30
2013,05,05,00,20,16.40
2013,05,05,00,21,16.40
2013,05,05,00,22,16.40
2013,05,05,00,23,16.40
2013,05,05,00,24,16.50
2013,05,05,00,25,16.50
2013,05,05,00,26,16.50
2013,05,05,00,27,16.60
2013,05,05,00,28,16.60
2013,05,05,00,29,16.70
2013,05,05,00,30,16.70
2013,05,05,00,31,16.80
2013,05,05,00,32,17.00
2013,05,05,00,33,17.10
2013,05,05,00,34,17.30
2013,05,05,00,35,17.50
2013,05,05,00,36,17.60
2013,05,05,00,37,17.70
2013,05,05,00,38,17.80
2013,05,05,00,39,17.80
2013,05,05,00,40,17.80
2013,05,05,00,41,17.90
2013,05,05,00,42,18.10
2013,05,05,00,43,18.20
2013,05,05,00,44,18.30
2013,05,05,00,45,18.40
2013,05,05,00,46,18.50
2013,05,05,00,47,18.50
2013,05,05,00,48,18.60
2013,05,05,00,49,18.70
2013,05,05,00,50,18.70
2013,05,05,00,51,18.80
2013,05,05,00,52,18.80
2013,05,05,00,53,18.80
2013,05,05,00,54,18.80
2013,05,05,00,55,18.80
2013,05,05,00,56,18.80
2013,05,05,00,57,18.80
2013,05,05,00,58,18.80
2013,05,05,00,59,18.80
2013,05,05,01,00,18.70
2013,05,05,01,01,18.70
2013,05,05,01,02,18.70
2013,05,05,01,03,18.60
2013,05,05,01,04,18.60
2013,05,05,01,05,18.50
2013,05,05,01,06,18.50
2013,05,05,01,07,18.40
2013,05,05,01,08,18.40
2013,05,05,01,09,18.30
2013,05,05,01,10,18.30
2013,05,05,01,11,18.30
2013,05,05,01,12,18.20
2013,05,05,01,13,18.20
2013,05,05,01,14,18.10
2013,05,05,01,15,18.10
2013,05,05,01,16,18.10
2013,05,05,01,17,18.00
2013,05,05,01,18,18.00
2013,05,05,01,19,18.00
2013,05,05,01,20,18.00
2013,05,05,01,21,18.00
2013,05,05,01,22,18.00
2013,05,05,01,23,17.90
2013,05,05,01,24,17.90
2013,05,05,01,25,17.90
2013,05,05,01,26,17.90
2013,05,05,01,27,17.90
2013,05,05,01,28,17.90
2013,05,05,01,29,17.90
2013,05,05,01,30,17.80
2013,05,05,01,31,17.80
2013,05,05,01,32,17.80
2013,05,05,01,33,17.80
2013,05,05,01,34,17.80
2013,05,05,01,35,17.70
2013,05,05,01,36,17.70
2013,05,05,01,37,17.70
2013,05,05,01,38,17.60
2013,05,05,01,39,17.60
2013,05,05,01,40,17.60
2013,05,05,01,41,17.50
2013,05,05,01,42,17.50
2013,05,05,01,43,17.40
2013,05,05,01,44,17.40
2013,05,05,01,45,17.40
2013,05,05,01,46,17.30
2013,05,05,01,47,17.30
2013,05,05,01,48,17.30
2013,05,05,01,49,17.30
2013,05,05,01,50,17.20
2013,05,05,01,51,17.20
2013,05,05,01,52,17.20
2013,05,05,01,53,17.20
2013,05,05,01,54,17.10
2013,05,05,01,55,17.10
2013,05,05,01,56,17.00
2013,05,05,01,57,17.00
2013,05,05,01,58,17.00
2013,05,05,01,59,16.90
2013,05,05,02,00,16.90
2013,05,05,02,01,16.90
2013,05,05,02,02,16.90
2013,05,05,02,03,16.80
2013,05,05,02,04,16.80
2013,05,05,02,05,16.80
2013,05,05,02,06,16.80
2013,05,05,02,07,16.90
2013,05,05,02,08,16.90
2013,05,05,02,09,16.90
2013,05,05,02,10,16.90
2013,05,05,02,11,16.80
2013,05,05,02,12,16.80
2013,05,05,02,13,16.80
2013,05,05,02,14,16.80
2013,05,05,02,15,16.80
2013,05,05,02,16,16.80
2013,05,05,02,17,16.70
2013,05,05,02,18,16.70
2013,05,05,02,19,16.70
2013,05,05,02,20,16.70
2013,05,05,02,21,16.70
2013,05,05,02,22,16.70
2013,05,05,02,23,16.70
2013,05,05,02,24,16.70
2013,05,05,02,25,16.70
2013,05,05,02,26,16.70
2013,05,05,02,27,16.70
2013,05,05,02,28,16.70
2013,05,05,02,29,16.70
2013,05,05,02,30,16.70
2013,05,05,02,31,16.70
2013,05,05,02,32,16.70
2013,05,05,02,33,16.70
2013,05,05,02,34,16.70
2013,05,05,02,35,16.60
2013,05,05,02,36,16.60
2013,05,05,02,37,16.60
2013,05,05,02,38,16.50
2013,05,05,02,39,16.50
2013,05,05,02,40,16.40
2013,05,05,02,41,16.40
2013,05,05,02,42,16.40
2013,05,05,02,43,16.30
2013,05,05,02,44,16.30
2013,05,05,02,45,16.30
2013,05,05,02,46,16.30
2013,05,05,02,47,16.20
2013,05,05,02,48,16.20
2013,05,05,02,49,16.20
2013,05,05,02,50,16.20
2013,05,05,02,51,16.10
2013,05,05,02,52,16.10
2013,05,05,02,53,16.10
2013,05,05,02,54,16.10
2013,05,05,02,55,16.00
2013,05,05,02,56,16.00
2013,05,05,02,57,15.90
2013,05,05,02,58,15.90
2013,05,05,02,59,15.80
2013,05,05,03,00,15.70
2013,05,05,03,01,15.70
2013,05,05,03,02,15.60
2013,05,05,03,03,15.50
2013,05,05,03,04,15.40
2013,05,05,03,05,15.30
2013,05,05,03,06,15.30
2013,05,05,03,07,15.20
2013,05,05,03,08,15.20
2013,05,05,03,09,15.20
2013,05,05,03,10,15.30
2013,05,05,03,11,15.30
2013,05,05,03,12,15.30
2013,05,05,03,13,15.30
2013,05,05,03,14,15.30
2013,05,05,03,15,15.30
2013,05,05,03,16,15.40
2013,05,05,03,17,15.50
2013,05,05,03,18,15.50
2013,05,05,03,19,15.60
2013,05,05,03,20,15.70
2013,05,05,03,21,15.80
2013,05,05,03,22,15.80
2013,05,05,03,23,15.80
2013,05,05,03,24,15.80
2013,05,05,03,25,15.90
2013,05,05,03,26,15.90
2013,05,05,03,27,15.90
2013,05,05,03,28,15.90
2013,05,05,03,29,15.90
2013,05,05,03,30,15.90
2013,05,05,03,31,15.90
2013,05,05,03,32,15.90
2013,05,05,03,33,15.90
2013,05,05,03,34,15.90
2013,05,05,03,35,15.90
2013,05,05,03,36,15.80
2013,05,05,03,37,15.80
2013,05,05,03,38,15.80
2013,05,05,03,39,15.80
2013,05,05,03,40,15.80
2013,05,05,03,41,15.80
2013,05,05,03,42,15.80
2013,05,05,03,43,15.80
2013,05,05,03,44,15.80
2013,05,05,03,45,15.90
2013,05,05,03,46,15.90
2013,05,05,03,47,16.00
2013,05,05,03,48,16.00
2013,05,05,03,49,16.00
2013,05,05,03,50,16.00
2013,05,05,03,51,16.00
2013,05,05,03,52,16.00
2013,05,05,03,53,16.00
2013,05,05,03,54,16.00
2013,05,05,03,55,15.90
2013,05,05,03,56,15.90
2013,05,05,03,57,15.80
2013,05,05,03,58,15.80
2013,05,05,03,59,15.70
2013,05,05,04,00,15.70
2013,05,05,04,01,15.60
2013,05,05,04,02,15.60
2013,05,05,04,03,15.50
2013,05,05,04,04,15.50
2013,05,05,04,05,15.50
2013,05,05,04,06,15.50
2013,05,05,04,07,15.50
2013,05,05,04,08,15.50
2013,05,05,04,09,15.50
2013,05,05,04,10,15.50
2013,05,05,04,11,15.60
2013,05,05,04,12,15.60
2013,05,05,04,13,15.60
2013,05,05,04,14,15.60
2013,05,05,04,15,15.60
2013,05,05,04,16,15.60
2013,05,05,04,17,15.60
2013,05,05,04,18,15.60
2013,05,05,04,19,15.50
2013,05,05,04,20,15.50
2013,05,05,04,21,15.50
2013,05,05,04,22,15.40
2013,05,05,04,23,15.40
2013,05,05,04,24,15.40
2013,05,05,04,25,15.30
2013,05,05,04,26,15.30
2013,05,05,04,27,15.20
2013,05,05,04,28,15.10
2013,05,05,04,29,15.00
2013,05,05,04,30,15.00
2013,05,05,04,31,15.00
2013,05,05,04,32,15.00
2013,05,05,04,33,14.80
2013,05,05,04,34,14.70
2013,05,05,04,35,14.60
2013,05,05,04,36,14.50
2013,05,05,04,37,14.50
2013,05,05,04,38,14.40
2013,05,05,04,39,14.30
2013,05,05,04,40,14.30
2013,05,05,04,41,14.20
2013,05,05,04,42,14.20
2013,05,05,04,43,14.20
2013,05,05,04,44,14.20
2013,05,05,04,45,14.20
2013,05,05,04,46,14.20
2013,05,05,04,47,14.20
2013,05,05,04,48,14.20
2013,05,05,04,49,14.20
2013,05,05,04,50,14.20
2013,05,05,04,51,14.20
2013,05,05,04,52,14.20
2013,05,05,04,53,14.20
2013,05,05,04,54,14.20
2013,05,05,04,55,14.30
2013,05,05,04,56,14.30
2013,05,05,04,57,14.30
2013,05,05,04,58,14.40
2013,05,05,04,59,14.40
2013,05,05,05,00,14.40
2013,05,05,05,01,14.40
2013,05,05,05,02,14.40
2013,05,05,05,03,14.40
2013,05,05,05,04,14.50
2013,05,05,05,05,14.50
2013,05,05,05,06,14.50
2013,05,05,05,07,14.50
2013,05,05,05,08,14.50
2013,05,05,05,09,14.50
2013,05,05,05,10,14.50
2013,05,05,05,11,14.50
2013,05,05,05,12,14.60
2013,05,05,05,13,14.60
2013,05,05,05,14,14.60
2013,05,05,05,15,14.60
2013,05,05,05,16,14.60
2013,05,05,05,17,14.70
2013,05,05,05,18,14.80
2013,05,05,05,19,14.80
2013,05,05,05,20,14.80
2013,05,05,05,21,14.80
2013,05,05,05,22,14.80
2013,05,05,05,23,14.70
2013,05,05,05,24,14.70
2013,05,05,05,25,14.60
2013,05,05,05,26,14.60
2013,05,05,05,27,14.50
2013,05,05,05,28,14.40
2013,05,05,05,29,14.30
2013,05,05,05,30,14.20
2013,05,05,05,31,14.10
2013,05,05,05,32,14.00
2013,05,05,05,33,13.90
2013,05,05,05,34,13.80
2013,05,05,05,35,13.80
2013,05,05,05,36,13.70
2013,05,05,05,37,13.70
2013,05,05,05,38,13.60
2013,05,05,05,39,13.60
2013,05,05,05,40,13.60
2013,05,05,05,41,13.60
2013,05,05,05,42,13.60
2013,05,05,05,43,13.60
2013,05,05,05,44,13.60
2013,05,05,05,45,13.60
2013,05,05,05,46,13.60
2013,05,05,05,47,13.60
2013,05,05,05,48,13.70
2013,05,05,05,49,13.70
2013,05,05,05,50,13.70
2013,05,05,05,51,13.80
2013,05,05,05,52,13.80
2013,05,05,05,53,13.90
2013,05,05,05,54,13.90
2013,05,05,05,55,14.00
2013,05,05,05,56,14.00
2013,05,05,05,57,14.10
2013,05,05,05,58,14.10
2013,05,05,05,59,14.10
2013,05,05,06,00,14.10
2013,05,05,06,01,14.20
2013,05,05,06,02,14.20
2013,05,05,06,03,14.20
2013,05,05,06,04,14.20
2013,05,05,06,05,14.20
2013,05,05,06,06,14.20
2013,05,05,06,07,14.20
2013,05,05,06,08,14.20
2013,05,05,06,09,14.10
2013,05,05,06,10,14.10
2013,05,05,06,11,14.10
2013,05,05,06,12,14.20
2013,05,05,06,13,14.20
2013,05,05,06,14,14.20
2013,05,05,06,15,14.20
2013,05,05,06,16,14.20
2013,05,05,06,17,14.20
2013,05,05,06,18,14.10
2013,05,05,06,19,14.10
2013,05,05,06,20,14.10
2013,05,05,06,21,14.10
2013,05,05,06,22,14.10
2013,05,05,06,23,14.10
2013,05,05,06,24,14.00
2013,05,05,06,25,14.00
2013,05,05,06,26,14.00
2013,05,05,06,27,14.00
2013,05,05,06,28,14.00
2013,05,05,06,29,14.00
2013,05,05,06,30,14.00
2013,05,05,06,31,14.10
2013,05,05,06,32,14.10
2013,05,05,06,33,14.20
2013,05,05,06,34,14.20
2013,05,05,06,35,14.20
2013,05,05,06,36,14.30
2013,05,05,06,37,14.30
2013,05,05,06,38,14.30
2013,05,05,06,39,14.40
2013,05,05,06,40,14.40
2013,05,05,06,41,14.50
2013,05,05,06,42,14.60
2013,05,05,06,43,14.60
2013,05,05,06,44,14.70
2013,05,05,06,45,14.80
2013,05,05,06,46,15.00
2013,05,05,06,47,15.00
2013,05,05,06,48,15.00
2013,05,05,06,49,15.00
2013,05,05,06,50,15.00
2013,05,05,06,51,15.10
2013,05,05,06,52,15.20
2013,05,05,06,53,15.20
2013,05,05,06,54,15.20
2013,05,05,06,55,15.30
2013,05,05,06,56,15.30
2013,05,05,06,57,15.40
2013,05,05,06,58,15.40
2013,05,05,06,59,15.40
2013,05,05,07,00,15.40
2013,05,05,07,01,15.40
2013,05,05,07,02,15.40
2013,05,05,07,03,15.50
2013,05,05,07,04,15.50
2013,05,05,07,05,15.60
2013,05,05,07,06,15.70
2013,05,05,07,07,15.70
2013,05,05,07,08,15.80
2013,05,05,07,09,15.80
2013,05,05,07,10,15.90
2013,05,05,07,11,15.90
2013,05,05,07,12,15.90
2013,05,05,07,13,16.00
2013,05,05,07,14,16.10
2013,05,05,07,15,16.10
2013,05,05,07,16,16.20
2013,05,05,07,17,16.20
2013,05,05,07,18,16.20
2013,05,05,07,19,16.30
2013,05,05,07,20,16.40
2013,05,05,07,21,16.40
2013,05,05,07,22,16.50
2013,05,05,07,23,16.50
2013,05,05,07,24,16.60
2013,05,05,07,25,16.60
2013,05,05,07,26,16.60
2013,05,05,07,27,16.60
2013,05,05,07,28,16.60
2013,05,05,07,29,16.70
2013,05,05,07,30,16.70
2013,05,05,07,31,16.70
2013,05,05,07,32,16.70
2013,05,05,07,33,16.70
2013,05,05,07,34,16.80
2013,05,05,07,35,16.80
2013,05,05,07,36,16.80
2013,05,05,07,37,16.80
2013,05,05,07,38,16.80
2013,05,05,07,39,16.90
2013,05,05,07,40,16.90
2013,05,05,07,41,17.00
2013,05,05,07,42,17.10
2013,05,05,07,43,17.20
2013,05,05,07,44,17.30
2013,05,05,07,45,17.30
2013,05,05,07,46,17.40
2013,05,05,07,47,17.50
2013,05,05,07,48,17.50
2013,05,05,07,49,17.60
2013,05,05,07,50,17.70
2013,05,05,07,51,17.70
2013,05,05,07,52,17.80
2013,05,05,07,53,17.80
2013,05,05,07,54,17.90
2013,05,05,07,55,17.90
2013,05,05,07,56,18.00
2013,05,05,07,57,18.10
2013,05,05,07,58,18.10
2013,05,05,07,59,18.20
2013,05,05,08,00,18.30
2013,05,05,08,01,18.40
2013,05,05,08,02,18.50
2013,05,05,08,03,18.50
2013,05,05,08,04,18.60
2013,05,05,08,05,18.60
2013,05,05,08,06,18.70
2013,05,05,08,07,18.70
2013,05,05,08,08,18.70
2013,05,05,08,09,18.70
2013,05,05,08,10,18.60
2013,05,05,08,11,18.60
2013,05,05,08,12,18.50
2013,05,05,08,13,18.40
2013,05,05,08,14,18.30
2013,05,05,08,15,18.30
2013,05,05,08,16,18.30
2013,05,05,08,17,18.30
2013,05,05,08,18,18.30
2013,05,05,08,19,18.20
2013,05,05,08,20,18.20
2013,05,05,08,21,18.20
2013,05,05,08,22,18.20
2013,05,05,08,23,18.20
2013,05,05,08,24,18.20
2013,05,05,08,25,18.30
2013,05,05,08,26,18.30
2013,05,05,08,27,18.30
2013,05,05,08,28,18.40
2013,05,05,08,29,18.40
2013,05,05,08,30,18.50
2013,05,05,08,31,18.60
2013,05,05,08,32,18.60
2013,05,05,08,33,18.70
2013,05,05,08,34,18.70
2013,05,05,08,35,18.80
2013,05,05,08,36,18.90
2013,05,05,08,37,19.00
2013,05,05,08,38,19.00
2013,05,05,08,39,19.10
2013,05,05,08,40,19.10
2013,05,05,08,41,19.20
2013,05,05,08,42,19.20
2013,05,05,08,43,19.20
2013,05,05,08,44,19.20
2013,05,05,08,45,19.30
2013,05,05,08,46,19.30
2013,05,05,08,47,19.30
2013,05,05,08,48,19.30
2013,05,05,08,49,19.30
2013,05,05,08,50,19.30
2013,05,05,08,51,19.30
2013,05,05,08,52,19.30
2013,05,05,08,53,19.30
2013,05,05,08,54,19.30
2013,05,05,08,55,19.30
2013,05,05,08,56,19.30
2013,05,05,08,57,19.30
2013,05,05,08,58,19.20
2013,05,05,08,59,19.20
2013,05,05,09,00,19.10
2013,05,05,09,01,19.00
2013,05,05,09,02,19.00
2013,05,05,09,03,18.90
2013,05,05,09,04,18.80
2013,05,05,09,05,18.80
2013,05,05,09,06,18.80
2013,05,05,09,07,18.80
2013,05,05,09,08,18.80
2013,05,05,09,09,18.80
2013,05,05,09,10,18.80
2013,05,05,09,11,18.80
2013,05,05,09,12,18.90
2013,05,05,09,13,18.90
2013,05,05,09,14,18.80
2013,05,05,09,15,18.80
2013,05,05,09,16,18.80
2013,05,05,09,17,18.80
2013,05,05,09,18,18.80
2013,05,05,09,19,18.90
2013,05,05,09,20,18.90
2013,05,05,09,21,18.90
2013,05,05,09,22,19.00
2013,05,05,09,23,19.00
2013,05,05,09,24,19.10
2013,05,05,09,25,19.20
2013,05,05,09,26,19.30
2013,05,05,09,27,19.30
2013,05,05,09,28,19.20
2013,05,05,09,29,19.30
2013,05,05,09,30,19.30
2013,05,05,09,31,19.30
2013,05,05,09,32,19.40
2013,05,05,09,33,19.40
2013,05,05,09,34,19.40
2013,05,05,09,35,19.30
2013,05,05,09,36,19.10
2013,05,05,09,37,19.00
2013,05,05,09,38,18.90
2013,05,05,09,39,18.90
2013,05,05,09,40,19.00
2013,05,05,09,41,19.00
2013,05,05,09,42,18.90
2013,05,05,09,43,18.90
2013,05,05,09,44,18.80
2013,05,05,09,45,18.70
2013,05,05,09,46,18.60
2013,05,05,09,47,18.50
2013,05,05,09,48,18.50
2013,05,05,09,49,18.50
2013,05,05,09,50,18.50
2013,05,05,09,51,18.50
2013,05,05,09,52,18.60
2013,05,05,09,53,18.60
2013,05,05,09,54,18.60
2013,05,05,09,55,18.70
2013,05,05,09,56,18.70
2013,05,05,09,57,18.70
2013,05,05,09,58,18.70
2013,05,05,09,59,18.60
2013,05,05,10,00,18.60
2013,05,05,10,01,18.50
2013,05,05,10,02,18.50
2013,05,05,10,03,18.40
2013,05,05,10,04,18.30
2013,05,05,10,05,18.20
2013,05,05,10,06,18.10
2013,05,05,10,07,18.00
2013,05,05,10,08,17.90
2013,05,05,10,09,17.80
2013,05,05,10,10,17.80
2013,05,05,10,11,17.80
2013,05,05,10,12,17.80
2013,05,05,10,13,17.70
2013,05,05,10,14,17.70
2013,05,05,10,15,17.70
2013,05,05,10,16,17.80
2013,05,05,10,17,17.80
2013,05,05,10,18,17.80
2013,05,05,10,19,17.80
2013,05,05,10,20,17.80
2013,05,05,10,21,17.80
2013,05,05,10,22,17.90
2013,05,05,10,23,17.90
2013,05,05,10,24,18.00
2013,05,05,10,25,18.10
2013,05,05,10,26,18.10
2013,05,05,10,27,18.10
2013,05,05,10,28,18.20
2013,05,05,10,29,18.20
2013,05,05,10,30,18.20
2013,05,05,10,31,18.20
2013,05,05,10,32,18.20
2013,05,05,10,33,18.20
2013,05,05,10,34,18.20
2013,05,05,10,35,18.20
2013,05,05,10,36,18.20
2013,05,05,10,37,18.30
2013,05,05,10,38,18.30
2013,05,05,10,39,18.40
2013,05,05,10,40,18.40
2013,05,05,10,41,18.40
2013,05,05,10,42,18.50
2013,05,05,10,43,18.50
2013,05,05,10,44,18.60
2013,05,05,10,45,18.70
2013,05,05,10,46,18.70
2013,05,05,10,47,18.80
2013,05,05,10,48,18.80
2013,05,05,10,49,18.80
2013,05,05,10,50,18.90
2013,05,05,10,51,18.90
2013,05,05,10,52,18.90
2013,05,05,10,53,19.00
2013,05,05,10,54,19.10
2013,05,05,10,55,19.20
2013,05,05,10,56,19.30
2013,05,05,10,57,19.30
2013,05,05,10,58,19.40
2013,05,05,10,59,19.50
2013,05,05,11,00,19.50
2013,05,05,11,01,19.60
2013,05,05,11,02,19.60
2013,05,05,11,03,19.60
2013,05,05,11,04,19.70
2013,05,05,11,05,19.70
2013,05,05,11,06,19.80
2013,05,05,11,07,19.80
2013,05,05,11,08,19.90
2013,05,05,11,09,19.90
2013,05,05,11,10,19.90
2013,05,05,11,11,19.90
2013,05,05,11,12,19.80
2013,05,05,11,13,19.70
2013,05,05,11,14,19.60
2013,05,05,11,15,19.50
2013,05,05,11,16,19.30
2013,05,05,11,17,19.10
2013,05,05,11,18,19.00
2013,05,05,11,19,18.90
2013,05,05,11,20,18.90
2013,05,05,11,21,18.80
2013,05,05,11,22,18.80
2013,05,05,11,23,18.80
2013,05,05,11,24,18.80
2013,05,05,11,25,18.80
2013,05,05,11,26,19.00
2013,05,05,11,27,19.10
2013,05,05,11,28,19.20
2013,05,05,11,29,19.30
2013,05,05,11,30,19.40
2013,05,05,11,31,19.50
2013,05,05,11,32,19.60
2013,05,05,11,33,19.80
2013,05,05,11,34,19.90
2013,05,05,11,35,20.00
2013,05,05,11,36,20.00
2013,05,05,11,37,19.90
2013,05,05,11,38,19.90
2013,05,05,11,39,19.90
2013,05,05,11,40,19.90
2013,05,05,11,41,19.80
2013,05,05,11,42,19.70
2013,05,05,11,43,19.60
2013,05,05,11,44,19.50
2013,05,05,11,45,19.40
2013,05,05,11,46,19.40
2013,05,05,11,47,19.40
2013,05,05,11,48,19.40
2013,05,05,11,49,19.50
2013,05,05,11,50,19.50
2013,05,05,11,51,19.50
2013,05,05,11,52,19.60
2013,05,05,11,53,19.60
2013,05,05,11,54,19.70
2013,05,05,11,55,19.70
2013,05,05,11,56,19.70
2013,05,05,11,57,19.70
2013,05,05,11,58,19.70
2013,05,05,11,59,19.70
2013,05,05,12,00,19.60
2013,05,05,12,01,19.60
2013,05,05,12,02,19.60
2013,05,05,12,03,19.60
2013,05,05,12,04,19.60
2013,05,05,12,05,19.70
2013,05,05,12,06,19.70
2013,05,05,12,07,19.70
2013,05,05,12,08,19.70
2013,05,05,12,09,19.70
2013,05,05,12,10,19.70
2013,05,05,12,11,19.70
2013,05,05,12,12,19.60
2013,05,05,12,13,19.50
2013,05,05,12,14,19.50
2013,05,05,12,15,19.50
2013,05,05,12,16,19.60
2013,05,05,12,17,19.70
2013,05,05,12,18,19.70
2013,05,05,12,19,19.70
2013,05,05,12,20,19.80
2013,05,05,12,21,19.90
2013,05,05,12,22,20.00
2013,05,05,12,23,20.00
2013,05,05,12,24,20.00
2013,05,05,12,25,20.00
2013,05,05,12,26,20.00
2013,05,05,12,27,20.10
2013,05,05,12,28,20.20
2013,05,05,12,29,20.30
2013,05,05,12,30,20.40
2013,05,05,12,31,20.50
2013,05,05,12,32,20.60
2013,05,05,12,33,20.70
2013,05,05,12,34,20.80
2013,05,05,12,35,20.80
2013,05,05,12,36,20.90
2013,05,05,12,37,20.90
2013,05,05,12,38,20.80
2013,05,05,12,39,20.80
2013,05,05,12,40,20.70
2013,05,05,12,41,20.70
2013,05,05,12,42,20.60
2013,05,05,12,43,20.60
2013,05,05,12,44,20.60
2013,05,05,12,45,20.60
2013,05,05,12,46,20.60
2013,05,05,12,47,20.60
2013,05,05,12,48,20.60
2013,05,05,12,49,20.60
2013,05,05,12,50,20.60
2013,05,05,12,51,20.60
2013,05,05,12,52,20.70
2013,05,05,12,53,20.70
2013,05,05,12,54,20.80
2013,05,05,12,55,20.90
2013,05,05,12,56,20.90
2013,05,05,12,57,21.00
2013,05,05,12,58,21.10
2013,05,05,12,59,21.10
2013,05,05,13,00,21.20
2013,05,05,13,01,21.20
2013,05,05,13,02,21.20
2013,05,05,13,03,21.20
2013,05,05,13,04,21.20
2013,05,05,13,05,21.20
2013,05,05,13,06,21.10
2013,05,05,13,07,21.10
2013,05,05,13,08,21.00
2013,05,05,13,09,20.90
2013,05,05,13,10,20.90
2013,05,05,13,11,20.90
2013,05,05,13,12,21.00
2013,05,05,13,13,21.00
2013,05,05,13,14,21.10
2013,05,05,13,15,21.20
2013,05,05,13,16,21.20
2013,05,05,13,17,21.10
2013,05,05,13,18,21.00
2013,05,05,13,19,20.90
2013,05,05,13,20,20.90
2013,05,05,13,21,21.00
2013,05,05,13,22,21.10
2013,05,05,13,23,21.10
2013,05,05,13,24,21.20
2013,05,05,13,25,21.20
2013,05,05,13,26,21.30
2013,05,05,13,27,21.30
2013,05,05,13,28,21.20
2013,05,05,13,29,21.20
2013,05,05,13,30,21.10
2013,05,05,13,31,21.10
2013,05,05,13,32,21.10
2013,05,05,13,33,21.20
2013,05,05,13,34,21.30
2013,05,05,13,35,21.40
2013,05,05,13,36,21.50
2013,05,05,13,37,21.50
2013,05,05,13,38,21.60
2013,05,05,13,39,21.60
2013,05,05,13,40,21.60
2013,05,05,13,41,21.60
2013,05,05,13,42,21.70
2013,05,05,13,43,21.80
2013,05,05,13,44,21.80
2013,05,05,13,45,21.90
2013,05,05,13,46,21.90
2013,05,05,13,47,21.90
2013,05,05,13,48,21.80
2013,05,05,13,49,21.80
2013,05,05,13,50,21.70
2013,05,05,13,51,21.70
2013,05,05,13,52,21.70
2013,05,05,13,53,21.80
2013,05,05,13,54,21.80
2013,05,05,13,55,21.90
2013,05,05,13,56,21.90
2013,05,05,13,57,22.00
2013,05,05,13,58,22.10
2013,05,05,13,59,22.10
2013,05,05,14,00,22.10
2013,05,05,14,01,22.10
2013,05,05,14,02,22.00
2013,05,05,14,03,22.00
2013,05,05,14,04,21.90
2013,05,05,14,05,21.90
2013,05,05,14,06,21.90
2013,05,05,14,07,21.90
2013,05,05,14,08,21.90
2013,05,05,14,09,22.00
2013,05,05,14,10,22.00
2013,05,05,14,11,22.10
2013,05,05,14,12,22.10
2013,05,05,14,13,22.20
2013,05,05,14,14,22.20
2013,05,05,14,15,22.30
2013,05,05,14,16,22.40
2013,05,05,14,17,22.40
2013,05,05,14,18,22.40
2013,05,05,14,19,22.40
2013,05,05,14,20,22.30
2013,05,05,14,21,22.30
2013,05,05,14,22,22.40
2013,05,05,14,23,22.40
2013,05,05,14,24,22.50
2013,05,05,14,25,22.60
2013,05,05,14,26,22.70
2013,05,05,14,27,22.80
2013,05,05,14,28,22.90
2013,05,05,14,29,22.90
2013,05,05,14,30,22.90
2013,05,05,14,31,23.00
2013,05,05,14,32,23.00
2013,05,05,14,33,23.00
2013,05,05,14,34,23.00
2013,05,05,14,35,23.00
2013,05,05,14,36,23.00
2013,05,05,14,37,23.10
2013,05,05,14,38,23.10
2013,05,05,14,39,23.20
2013,05,05,14,40,23.40
2013,05,05,14,41,23.50
2013,05,05,14,42,23.60
2013,05,05,14,43,23.60
2013,05,05,14,44,23.70
2013,05,05,14,45,23.70
2013,05,05,14,46,23.70
2013,05,05,14,47,23.70
2013,05,05,14,48,23.70
2013,05,05,14,49,23.70
2013,05,05,14,50,23.70
2013,05,05,14,51,23.70
2013,05,05,14,52,23.80
2013,05,05,14,53,23.80
2013,05,05,14,54,23.90
2013,05,05,14,55,24.00
2013,05,05,14,56,24.10
2013,05,05,14,57,24.10
2013,05,05,14,58,24.20
2013,05,05,14,59,24.20
2013,05,05,15,00,24.30
2013,05,05,15,01,24.30
2013,05,05,15,02,24.20
2013,05,05,15,03,24.20
2013,05,05,15,04,24.20
2013,05,05,15,05,24.20
2013,05,05,15,06,24.20
2013,05,05,15,07,24.20
2013,05,05,15,08,24.30
2013,05,05,15,09,24.30
2013,05,05,15,10,24.30
2013,05,05,15,11,24.30
2013,05,05,15,12,24.40
2013,05,05,15,13,24.40
2013,05,05,15,14,24.40
2013,05,05,15,15,24.40
2013,05,05,15,16,24.40
2013,05,05,15,17,24.40
2013,05,05,15,18,24.40
2013,05,05,15,19,24.40
2013,05,05,15,20,24.40
2013,05,05,15,21,24.40
2013,05,05,15,22,24.40
2013,05,05,15,23,24.40
2013,05,05,15,24,24.40
2013,05,05,15,25,24.40
2013,05,05,15,26,24.30
2013,05,05,15,27,24.30
2013,05,05,15,28,24.30
2013,05,05,15,29,24.40
2013,05,05,15,30,24.40
2013,05,05,15,31,24.50
2013,05,05,15,32,24.50
2013,05,05,15,33,24.60
2013,05,05,15,34,24.80
2013,05,05,15,35,24.80
2013,05,05,15,36,24.80
2013,05,05,15,37,24.80
2013,05,05,15,38,24.80
2013,05,05,15,39,24.80
2013,05,05,15,40,24.90
2013,05,05,15,41,24.90
2013,05,05,15,42,25.00
2013,05,05,15,43,25.00
2013,05,05,15,44,25.10
2013,05,05,15,45,25.10
2013,05,05,15,46,25.20
2013,05,05,15,47,25.20
2013,05,05,15,48,25.20
2013,05,05,15,49,25.20
2013,05,05,15,50,25.20
2013,05,05,15,51,25.20
2013,05,05,15,52,25.20
2013,05,05,15,53,25.20
2013,05,05,15,54,25.30
2013,05,05,15,55,25.30
2013,05,05,15,56,25.30
2013,05,05,15,57,25.30
2013,05,05,15,58,25.30
2013,05,05,15,59,25.30
2013,05,05,16,00,25.40
2013,05,05,16,01,25.40
2013,05,05,16,02,25.40
2013,05,05,16,03,25.40
2013,05,05,16,04,25.50
2013,05,05,16,05,25.50
2013,05,05,16,06,25.50
2013,05,05,16,07,25.60
2013,05,05,16,08,25.70
2013,05,05,16,09,25.60
2013,05,05,16,10,25.60
2013,05,05,16,11,25.70
2013,05,05,16,12,25.70
2013,05,05,16,13,25.70
2013,05,05,16,14,25.60
2013,05,05,16,15,25.50
2013,05,05,16,16,25.40
2013,05,05,16,17,25.40
2013,05,05,16,18,25.30
2013,05,05,16,19,25.20
2013,05,05,16,20,25.10
2013,05,05,16,21,25.00
2013,05,05,16,22,24.90
2013,05,05,16,23,24.90
2013,05,05,16,24,24.80
2013,05,05,16,25,24.80
2013,05,05,16,26,24.80
2013,05,05,16,27,24.80
2013,05,05,16,28,24.80
2013,05,05,16,29,24.80
2013,05,05,16,30,24.80
2013,05,05,16,31,24.80
2013,05,05,16,32,24.90
2013,05,05,16,33,24.90
2013,05,05,16,34,24.90
2013,05,05,16,35,24.90
2013,05,05,16,36,24.90
2013,05,05,16,37,24.90
2013,05,05,16,38,24.90
2013,05,05,16,39,24.90
2013,05,05,16,40,24.90
2013,05,05,16,41,24.90
2013,05,05,16,42,24.80
2013,05,05,16,43,24.80
2013,05,05,16,44,24.80
2013,05,05,16,45,24.80
2013,05,05,16,46,24.80
2013,05,05,16,47,24.90
2013,05,05,16,48,24.90
2013,05,05,16,49,24.90
2013,05,05,16,50,24.90
2013,05,05,16,51,24.90
2013,05,05,16,52,25.00
2013,05,05,16,53,25.00
2013,05,05,16,54,25.00
2013,05,05,16,55,25.00
2013,05,05,16,56,25.10
2013,05,05,16,57,25.10
2013,05,05,16,58,25.20
2013,05,05,16,59,25.20
2013,05,05,17,00,25.20
2013,05,05,17,01,25.20
2013,05,05,17,02,25.10
2013,05,05,17,03,25.10
2013,05,05,17,04,25.10
2013,05,05,17,05,25.10
2013,05,05,17,06,25.10
2013,05,05,17,07,25.10
2013,05,05,17,08,25.10
2013,05,05,17,09,25.10
2013,05,05,17,10,25.10
2013,05,05,17,11,25.10
2013,05,05,17,12,25.00
2013,05,05,17,13,24.90
2013,05,05,17,14,24.90
2013,05,05,17,15,24.90
2013,05,05,17,16,24.80
2013,05,05,17,17,24.80
2013,05,05,17,18,24.80
2013,05,05,17,19,24.70